This demonstration page uses our WeatherBlox Daily Observations layout. Learn more.

Left ArrowRight Arrow

31.31129, -92.44514

Hourly Observations for December 22, 2019

Temp ( °F °C ) Dew Point ( °F °C ) Humidity (%) Winds ( mph kmh ) Pressure ( in mb ) Visibility ( mi km ) Precip ( " mm )
12:53 am 00:53 Cloudy 46 7.8 44 6.7 93 93 NW 5 7 30.23 1024 10 16 0.00 0.00
1:53 am 01:53 Cloudy 46 7.8 44 6.7 93 93 NW 5 7 30.22 1024 10 16 0.00 0.00
2:53 am 02:53 Cloudy 46 7.8 44 6.7 93 93 NW 8 13 30.23 1024 10 16 0.00 0.00
3:21 am 03:21 Cloudy 47 8.3 44 6.7 90 90 NNW 6 9 30.21 1023 10 16 0.00 0.00
3:53 am 03:53 Cloudy 47 8.3 44 6.7 90 90 NW 7 11 30.22 1024 9 14 0.00 0.00
4:53 am 04:53 Cloudy 47 8.3 44 6.7 90 90 NW 7 11 30.21 1023 10 16 0.00 0.00
5:34 am 05:34 Cloudy 47 8.3 44 6.7 90 90 NNW 9 15 30.20 1023 10 16 0.00 0.00
5:53 am 05:53 Cloudy 47 8.3 44 6.7 90 90 NNW 8 13 30.21 1023 10 16 0.00 0.00
6:53 am 06:53 Cloudy 47 8.3 44 6.7 90 90 NW 8 13 30.21 1023 10 16 0.00 0.00
7:46 am 07:46 Cloudy 47 8.3 44 6.7 90 90 NNW 7 11 30.21 1023 9 14 0.00 0.00
7:53 am 07:53 Cloudy 47 8.3 44 6.7 90 90 NNW 6 9 30.23 1024 9 14 0.00 0.00
8:05 am 08:05 Cloudy 47 8.3 44 6.7 90 90 NNW 6 9 30.22 1023 9 14 0.00 0.00
8:41 am 08:41 Cloudy 48 8.9 45 7.2 89 89 NW 7 11 30.21 1023 10 16 0.00 0.00
8:53 am 08:53 Cloudy 48 8.9 45 7.2 89 89 NW 8 13 30.23 1024 10 16 0.00 0.00
9:18 am 09:18 Cloudy 49 9.4 44 6.7 83 83 NNW 9 15 30.21 1023 10 16 0.00 0.00
9:53 am 09:53 Cloudy 50 10 43 6.1 77 77 NNW 10 17 30.22 1024 10 16 0.00 0.00
10:53 am 10:53 Cloudy with Light Rain 52 11.1 44 6.7 75 75 N 15 24 30.20 1023 8 13 0.00 0.00
11:53 am 11:53 Mostly Cloudy 55 12.8 45 7.2 69 69 NW 8 13 30.16 1021 10 16 0.01 0.25
12:05 pm 12:05 Cloudy 55 12.8 44 6.7 67 67 NNW 7 11 30.14 1021 10 16 0.00 0.00
12:53 pm 12:53 Cloudy 55 12.8 44 6.7 67 67 NW 12 19 30.12 1020 10 16 0.00 0.00
1:53 pm 13:53 Cloudy with Light Rain 53 11.7 47 8.3 80 80 NNW 8 13 30.10 1019 8 13 0.01 0.25
2:53 pm 14:53 Cloudy 55 12.8 45 7.2 69 69 NNW 15 24 30.09 1019 10 16 0.00 0.00
3:53 pm 15:53 Cloudy 56 13.3 44 6.7 65 65 NW 10 17 30.09 1019 10 16 0.00 0.00
4:02 pm 16:02 Cloudy 56 13.3 43 6.1 62 62 NW 15 24 30.07 1018 10 16 0.00 0.00
4:10 pm 16:10 Cloudy 56 13.3 44 6.7 65 65 NW 16 26 30.07 1018 10 16 0.00 0.00
4:34 pm 16:34 Cloudy 55 12.8 44 6.7 67 67 NW 16 26 30.07 1018 10 16 0.00 0.00
4:53 pm 16:53 Cloudy 54 12.2 43 6.1 67 67 NW 13 20 30.08 1019 10 16 0.00 0.00
5:53 pm 17:53 Cloudy 54 12.2 42 5.6 64 64 NNW 12 19 30.08 1019 10 16 0.00 0.00
6:18 pm 18:18 Cloudy 54 12.2 42 5.6 64 64 NNW 8 13 30.07 1018 10 16 0.00 0.00
6:53 pm 18:53 Cloudy 53 11.7 42 5.6 66 66 NNW 8 13 30.09 1019 10 16 0.00 0.00
7:53 pm 19:53 Cloudy 53 11.7 42 5.6 66 66 NW 10 17 30.08 1019 10 16 0.00 0.00
8:53 pm 20:53 Mostly Cloudy 51 10.6 42 5.6 71 71 NW 9 15 30.09 1019 10 16 0.00 0.00
9:53 pm 21:53 Partly Cloudy 52 11.1 41 5 66 66 NW 9 15 30.06 1018 10 16 0.00 0.00
10:53 pm 22:53 Clear 51 10.6 41 5 69 69 NW 10 17 30.06 1018 10 16 0.00 0.00
11:53 pm 23:53 Clear 50 10 41 5 71 71 WNW 15 24 30.04 1017 10 16 0.00 0.00

Powered by AerisWeather